This is the latest recevied weather packets stored in our database for station/object WX1NWA. If no packets are shown the sender has not sent any weather packets the latest 10 day(s).
| Time | Temp. | Humidity | Pressure | Rain* | Wind** | Luminosity | Snow |
|---|---|---|---|---|---|---|---|
| 1777835577 | 22.78° C | 46% | 1020 hPa | 0 mm | - | 674 W/m² | - |
| 1777835274 | 22.78° C | 45% | 1020.1 hPa | 0 mm | - | 687 W/m² | - |
| 1777834971 | 22.78° C | 47% | 1020.1 hPa | 0 mm | - | 701 W/m² | - |
| 1777834668 | 22.78° C | 47% | 1020.1 hPa | 0 mm | - | 691 W/m² | - |
| 1777834364 | 22.22° C | 45% | 1020.1 hPa | 0 mm | - | 688 W/m² | - |
| 1777834058 | 21.67° C | 48% | 1019.9 hPa | 0 mm | - | 691 W/m² | - |
| 1777833755 | 22.78° C | 48% | 1020.2 hPa | 0 mm | - | 702 W/m² | - |
| 1777833451 | 21.67° C | 47% | 1020.1 hPa | 0 mm | - | 705 W/m² | - |
| 1777833149 | 21.67° C | 46% | 1020.2 hPa | 0 mm | - | 708 W/m² | - |
| 1777832847 | 22.22° C | 47% | 1020.8 hPa | 0 mm | - | 706 W/m² | - |
| 1777832545 | 22.22° C | 45% | 1020.4 hPa | 0 mm | - | 713 W/m² | - |
| 1777832241 | 22.22° C | 46% | 1020.7 hPa | 0 mm | - | 707 W/m² | - |
| 1777831938 | 21.11° C | 47% | 1020.8 hPa | 0 mm | - | 696 W/m² | - |
| 1777831634 | 21.11° C | 48% | 1020.6 hPa | 0 mm | - | 692 W/m² | - |
| 1777831334 | 21.11° C | 47% | 1020.9 hPa | 0 mm | - | 701 W/m² | - |
| 1777831030 | 20.56° C | 48% | 1021.1 hPa | 0 mm | - | 709 W/m² | - |
| 1777830728 | 20° C | 49% | 1021.2 hPa | 0 mm | - | 733 W/m² | - |
| 1777830423 | 20.56° C | 48% | 1021 hPa | 0 mm | - | 740 W/m² | - |
| 1777830121 | 20° C | 50% | 1021 hPa | 0 mm | - | 742 W/m² | - |
| 1777829816 | 20° C | 48% | 1021.2 hPa | 0 mm | - | 742 W/m² | - |
| 1777829512 | 20° C | 48% | 1021.2 hPa | 0 mm | - | 732 W/m² | - |
| 1777829209 | 19.44° C | 50% | 1021.4 hPa | 0 mm | - | 736 W/m² | - |
| 1777828907 | 20° C | 47% | 1021.2 hPa | 0 mm | - | 742 W/m² | - |
| 1777828603 | 20° C | 48% | 1021.3 hPa | 0 mm | - | 739 W/m² | - |
| 1777828301 | 19.44° C | 50% | 1021.7 hPa | 0 mm | - | 738 W/m² | - |
* Rain latest hour (hover to see other rain measurements)
** Current wind speed in m/s (hover to see current wind gust speed)